sat.trackr.live / text

‹ back to catalog

STARLINK-34862

NORAD 65180 · 2025-175G

PAYLOAD ACTIVE UNKNOWN

§ Identity

Operator
Country
US
Launch date
2025-08-14
Launch site
AFWTR
Launch vehicle
Mass (kg)
RCS (m²)

Purposes: comms

External: N2YO · Heavens-Above · Gunter

§ Orbital elements

Epoch: 2026-05-25T03:37:56.241696Z

Period
95.64 min
Inclination
97.4489°
Eccentricity
0.0002305
Mean motion
15.05655607 rev/d
Perigee alt
547.9 km
Apogee alt
551.1 km
Semi-major
6,927.6 km
B*
7.0489e-5
RAAN
17.6146°
Arg perigee
75.1421°
Mean anomaly
285.0061°
Rev number
4,414

§ Raw data

STARLINK-348621 65180U 25175G   26145.15134539  .00000959  00000+0  70489-4 0  99932 65180  97.4489  17.6146 0002305  75.1421 285.0061 15.05655607 44143

JSON: /api/v1/satellites/65180 · /tle

For live sub-satellite position, see the globe view (requires WebGL).

§ Visibility from observer

Set your observer location to see the next 7 days of passes ≥ 10°. The values pass through the URL so the page stays shareable.

No JS? Fill the form by hand. The geolocation button needs JavaScript.